Temp
6 6 5 5 5 4 4 3 2 2 1 -0 -0 -0 -2 -3 -3 -4 -2 -2 -2 -5 -5 -4 -5 -5 -4 -5 -3 -2 -1 -2 -1 0 2 4 5 5 5 5 6 6 6 6 6
6 5 5 5 4 4 3 2 1 -0 -1 -1 -0 -0 -2 -3 -4 -9 -5 -6 -7 -7 -8 -8 -7 -8 -7 -6 -4 -3 -2 -2 -2 -1 1 2 5 5 5 5 6 6 6 6 6
5 5 5 4 4 3 2 1 -0 -1 -1 0 -0 -1 -3 -4 -7 -9 -9 -8 -8 -9 -9 -9 -9 -9 -8 -6 -5 -4 -3 -2 -2 -1 -0 1 3 4 4 5 5 5 5 6 6
5 5 4 4 4 3 2 1 -0 -1 -0 0 -0 -2 -3 -4 -7 -9 -9 -9 -9 -10 -9 -10 -10 -10 -10 -8 -6 -6 -4 -4 -3 -2 -2 -0 2 3 3 4 4 5 5 5 5
5 4 4 4 3 2 2 0 -0 -1 -1 -1 -1 -2 -4 -7 -9 -8 -9 -9 -9 -10 -10 -10 -10 -10 -10 -10 -9 -8 -6 -6 -4 -3 -2 -1 0 1 3 2 3 4 4 4 5
4 4 4 4 3 2 1 0 -1 -1 -1 -1 -2 -4 -6 -6 -9 -9 -9 -9 -9 -10 -9 -10 -10 -10 -11 -10 -10 -9 -8 -7 -5 -4 -4 -2 -1 1 2 1 2 4 3 3 4
4 4 4 4 3 2 1 0 -1 -1 -1 -2 -3 -5 -7 -9 -9 -8 -9 -9 -9 -10 -10 -10 -10 -11 -11 -10 -10 -10 -9 -9 -7 -5 -5 -3 -2 0 1 1 0 2 4 3 3
4 4 3 3 3 3 1 0 -1 -2 -1 -3 -5 -5 -8 -9 -9 -8 -8 -9 -9 -10 -11 -11 -10 -10 -10 -11 -10 -10 -10 -9 -7 -6 -5 -5 -3 -1 0 1 -0 0 2 3 2
3 3 3 3 3 2 1 0 -1 -1 -2 -4 -6 -6 -8 -8 -7 -8 -9 -8 -9 -11 -11 -10 -10 -10 -10 -11 -11 -10 -10 -8 -6 -6 -4 -5 -5 -3 -2 -1 -1 -1 1 2 2
3 3 3 3 3 2 1 0 -1 -2 -3 -4 -6 -7 -6 -9 -9 -10 -9 -9 -10 -11 -11 -11 -11 -11 -11 -11 -10 -10 -9 -8 -8 -6 -6 -5 -5 -4 -2 -2 -0 -0 -0 0 1
3 2 2 3 3 2 1 -0 -0 -1 -4 -5 -6 -8 -9 -9 -10 -9 -9 -9 -10 -10 -11 -11 -11 -11 -11 -11 -10 -10 -10 -10 -8 -8 -7 -5 -5 -3 -2 -2 -2 -0 -1 -1 0
2 2 2 2 2 2 0 0 -2 -3 -4 -7 -6 -7 -8 -10 -8 -7 -8 -9 -10 -11 -11 -11 -11 -12 -11 -10 -11 -10 -10 -8 -8 -8 -7 -6 -4 -3 -3 -2 -2 -1 -0 -1 -0
2 2 2 2 2 2 0 -0 -3 -3 -4 -6 -6 -7 -6 -9 -10 -9 -9 -9 -10 -11 -11 -11 -12 -12 -12 -11 -10 -10 -10 -8 -9 -8 -6 -6 -4 -4 -3 -3 -2 -2 -2 -0 -0
2 1 1 1 2 1 1 -0 -3 -4 -4 -5 -6 -8 -8 -9 -10 -11 -10 -9 -11 -11 -11 -12 -12 -12 -11 -11 -11 -11 -10 -10 -9 -9 -7 -6 -5 -4 -4 -4 -3 -1 -2 -1 -0
1 1 1 1 1 1 0 -1 -2 -4 -6 -5 -6 -7 -9 -9 -11 -11 -10 -9 -11 -12 -12 -12 -12 -12 -11 -12 -12 -10 -10 -9 -8 -8 -8 -8 -5 -4 -4 -3 -3 -3 -2 -2 -1
1 1 1 1 1 1 0 -2 -2 -3 -7 -5 -7 -7 -9 -8 -10 -11 -10 -9 -10 -10 -11 -12 -11 -12 -13 -11 -11 -10 -9 -9 -8 -8 -8 -6 -6 -9 -7 -6 -4 -3 -2 -3 -2
1 1 1 0 0 0 0 -2 -4 -5 -7 -5 -6 -8 -9 -9 -9 -11 -10 -10 -12 -12 -12 -12 -11 -12 -12 -11 -10 -11 -10 -9 -8 -10 -12 -5 -6 -12 -9 -8 -7 -4 -3 -3 -2
1 1 0 0 -0 -0 -0 -3 -5 -6 -7 -7 -7 -7 -9 -9 -9 -10 -10 -11 -11 -12 -13 -13 -12 -12 -12 -12 -12 -10 -10 -10 -9 -11 -9 -5 -9 -12 -10 -9 -7 -6 -4 -3 -2
1 0 0 -0 -1 -1 -0 -3 -6 -7 -7 -7 -8 -8 -9 -8 -10 -9 -11 -11 -11 -12 -14 -13 -11 -11 -11 -12 -10 -10 -11 -11 -11 -6 -5 -8 -10 -9 -9 -9 -8 -6 -5 -3 -2
1 1 0 -0 -1 -1 -1 -4 -5 -5 -6 -7 -9 -9 -11 -9 -9 -10 -11 -11 -11 -12 -13 -13 -13 -11 -11 -11 -11 -12 -11 -10 -9 -9 -8 -9 -11 -13 -9 -8 -8 -6 -5 -4 -3
1 1 -0 -1 -1 -1 -3 -4 -4 -5 -5 -6 -7 -8 -9 -10 -9 -10 -10 -11 -10 -10 -11 -13 -13 -10 -10 -12 -13 -11 -13 -11 -10 -9 -8 -7 -13 -12 -11 -9 -8 -7 -5 -5 -4
1 0 -1 -1 -0 -2 -3 -4 -4 -5 -5 -6 -6 -8 -8 -8 -8 -10 -10 -10 -10 -11 -11 -11 -12 -12 -10 -10 -11 -12 -12 -12 -11 -10 -10 -9 -13 -12 -12 -10 -9 -8 -7 -6 -6
1 0 -1 -1 -2 -2 -3 -3 -4 -4 -5 -5 -6 -7 -7 -8 -9 -9 -9 -9 -10 -10 -10 -11 -11 -12 -9 -10 -10 -12 -11 -11 -11 -11 -11 -12 -12 -12 -12 -11 -10 -9 -9 -7 -6
0 -1 -0 -0 -2 -3 -3 -4 -4 -4 -5 -5 -6 -6 -6 -8 -9 -8 -8 -9 -9 -10 -10 -11 -12 -12 -13 -12 -13 -13 -11 -11 -10 -12 -13 -12 -12 -12 -11 -11 -10 -10 -9 -8 -6
0 -1 -1 -1 -1 -2 -3 -4 -4 -5 -5 -5 -6 -6 -7 -7 -7 -8 -7 -8 -8 -9 -9 -10 -11 -11 -11 -11 -12 -12 -12 -11 -11 -12 -12 -11 -11 -12 -12 -11 -10 -10 -11 -9 -7
0 -1 -1 -1 -2 -2 -3 -4 -4 -4 -5 -5 -5 -6 -6 -7 -7 -7 -7 -8 -8 -8 -9 -10 -10 -11 -10 -11 -11 -12 -12 -11 -11 -11 -11 -11 -11 -12 -12 -11 -11 -11 -10 -9 -8
-0 -0 -1 -1 -1 -2 -3 -4 -4 -4 -4 -5 -6 -6 -6 -6 -6 -6 -7 -7 -8 -9 -9 -10 -10 -10 -10 -10 -11 -12 -11 -11 -11 -11 -12 -12 -12 -11 -11 -12 -12 -11 -11 -10 -9
Height
3106 3102 3097 3093 3089 3084 3080 3075 3071 3066 3063 3060 3057 3051 3044 3039 3031 3024 3027 3023 3019 3015 3014 3014 3016 3018 3020 3023 3029 3033 3030 3019 3020 3039 3049 3059 3064 3070 3075 3080 3085 3091 3092 3094 3098
3106 3101 3096 3091 3086 3081 3077 3072 3067 3063 3061 3053 3043 3038 3033 3031 3027 3017 3021 3016 3014 3012 3009 3008 3008 3010 3012 3014 3019 3021 3017 3007 3029 3038 3045 3052 3056 3064 3067 3070 3076 3082 3087 3089 3093
3106 3101 3095 3089 3085 3080 3075 3070 3065 3062 3056 3048 3042 3036 3030 3025 3021 3016 3016 3014 3010 3006 3004 3003 3004 3003 3006 3008 3010 3010 3005 3018 3024 3031 3038 3042 3044 3054 3057 3057 3066 3076 3080 3084 3088
3106 3100 3094 3089 3084 3079 3074 3069 3063 3058 3055 3050 3043 3035 3029 3020 3026 3017 3012 3008 3005 3001 2999 2999 2998 2998 2999 3000 3002 3001 3003 3007 3015 3020 3026 3031 3038 3037 3048 3052 3059 3071 3077 3080 3082
3105 3100 3094 3089 3084 3077 3071 3066 3062 3060 3054 3049 3042 3034 3027 3022 3019 3013 3007 3001 2999 2996 2993 2992 2993 2995 2994 2996 2996 2992 2996 2998 3002 3007 3016 3024 3025 3029 3035 3045 3051 3060 3069 3071 3076
3105 3100 3095 3089 3083 3077 3071 3066 3062 3060 3056 3048 3040 3031 3026 3021 3016 3011 3004 2997 2993 2989 2986 2986 2987 2989 2988 2991 2992 2992 2993 2989 2993 2999 3005 3010 3017 3025 3029 3039 3046 3053 3059 3065 3069
3106 3101 3094 3087 3082 3076 3070 3065 3061 3059 3055 3045 3036 3031 3026 3021 3014 3008 3000 2995 2988 2983 2979 2978 2980 2983 2985 2987 2989 2990 2987 2987 2987 2993 2999 3006 3008 3005 3024 3033 3039 3046 3052 3059 3063
3107 3101 3095 3088 3081 3076 3070 3064 3061 3059 3053 3042 3033 3028 3025 3019 3013 3007 2999 2993 2987 2980 2976 2973 2976 2979 2980 2984 2985 2986 2986 2983 2989 2992 2993 3000 2998 3009 3020 3027 3029 3037 3045 3052 3058
3107 3102 3095 3088 3082 3076 3070 3064 3060 3058 3050 3039 3038 3029 3023 3022 3014 3005 2998 2990 2985 2981 2977 2974 2976 2978 2979 2981 2983 2983 2981 2982 2985 2990 2992 2991 2996 3005 3010 3017 3024 3031 3040 3045 3051
3109 3102 3096 3089 3082 3076 3071 3063 3059 3056 3054 3042 3036 3029 3026 3015 3011 3004 2999 2991 2984 2983 2979 2977 2977 2977 2978 2978 2979 2978 2980 2980 2980 2984 2985 2987 2989 3000 3005 3012 3020 3027 3033 3040 3045
3109 3103 3096 3090 3083 3076 3070 3064 3062 3057 3050 3044 3041 3034 3027 3021 3015 3006 2996 2992 2987 2985 2981 2980 2979 2977 2976 2975 2976 2976 2976 2976 2977 2979 2979 2980 2986 2992 3002 3007 3015 3022 3029 3035 3041
3109 3104 3097 3090 3083 3077 3069 3062 3057 3056 3052 3044 3045 3039 3029 3021 3014 3006 2998 2991 2986 2984 2983 2981 2978 2977 2975 2973 2973 2974 2973 2974 2974 2977 2976 2976 2982 2988 2997 3004 3010 3018 3025 3032 3039
3109 3104 3098 3091 3085 3078 3070 3064 3057 3055 3053 3050 3045 3036 3027 3021 3014 3006 2998 2994 2989 2986 2984 2983 2982 2976 2973 2971 2971 2971 2974 2974 2975 2973 2973 2974 2981 2987 2993 3001 3008 3013 3019 3027 3034
3110 3104 3097 3091 3088 3078 3072 3065 3058 3055 3053 3056 3048 3041 3030 3024 3019 3011 3004 2997 2991 2989 2986 2985 2982 2976 2971 2970 2971 2971 2973 2973 2975 2976 2973 2974 2978 2984 2990 2996 3003 3011 3017 3025 3030
3110 3104 3098 3090 3086 3080 3074 3067 3060 3058 3059 3060 3050 3046 3035 3030 3024 3016 3009 2999 2993 2991 2991 2989 2981 2976 2973 2972 2972 2972 2971 2972 2974 2975 2976 2973 2976 2980 2988 2992 2997 3001 3004 3012 3019
3110 3105 3099 3094 3087 3080 3074 3068 3063 3061 3064 3062 3057 3046 3035 3033 3026 3022 3012 3001 2996 2992 2992 2989 2987 2980 2978 2972 2971 2971 2970 2971 2972 2976 2977 2975 2978 2981 2985 2985 2986 2993 2999 3003 3009
3110 3105 3099 3094 3088 3082 3077 3069 3066 3067 3073 3066 3054 3045 3039 3034 3026 3020 3012 3002 2999 2994 2992 2991 2988 2981 2978 2972 2971 2971 2971 2972 2976 2980 2980 2973 2979 2989 2986 2986 2986 2989 2993 2999 3005
3110 3105 3101 3095 3090 3085 3079 3071 3067 3076 3070 3065 3055 3046 3044 3036 3030 3024 3018 3010 3007 3003 3000 2996 2990 2986 2983 2979 2977 2972 2974 2974 2975 2979 2974 2976 2982 2987 2987 2986 2985 2987 2989 2995 3001
3111 3107 3102 3097 3092 3087 3081 3071 3077 3073 3069 3061 3053 3049 3045 3042 3035 3027 3023 3018 3014 3008 3008 3003 2998 2995 2989 2982 2979 2976 2974 2976 2973 2969 2973 2981 2987 2988 2987 2987 2984 2984 2987 2989 2996
3112 3106 3102 3098 3094 3091 3083 3077 3078 3075 3069 3063 3057 3053 3048 3042 3038 3030 3027 3024 3019 3014 3011 3009 3002 2998 2994 2988 2984 2980 2979 2978 2976 2977 2978 2983 2988 2989 2986 2985 2983 2983 2987 2988 2992
3112 3106 3102 3099 3096 3091 3082 3081 3079 3075 3070 3066 3061 3056 3053 3046 3042 3037 3035 3029 3024 3017 3013 3008 3007 3001 2996 2992 2991 2981 2981 2981 2982 2983 2982 2980 2990 2987 2986 2985 2984 2984 2985 2986 2988
3112 3107 3103 3098 3095 3087 3084 3082 3079 3076 3072 3066 3061 3056 3051 3047 3043 3039 3036 3033 3028 3021 3014 3012 3008 3001 3001 3000 2998 2995 2990 2986 2986 2989 2987 2988 2995 2990 2988 2984 2982 2981 2981 2981 2983
3112 3108 3104 3100 3095 3090 3087 3085 3081 3076 3071 3067 3064 3059 3055 3048 3044 3040 3038 3034 3030 3025 3019 3016 3013 3007 3002 3003 3000 2995 2995 2993 2990 2989 2991 2991 2993 2989 2987 2984 2983 2981 2978 2977 2979
3113 3108 3104 3102 3096 3092 3088 3085 3081 3077 3072 3069 3066 3061 3055 3049 3045 3042 3038 3034 3031 3028 3023 3018 3016 3015 3014 3011 3007 3001 2999 2996 2993 2992 2992 2991 2991 2989 2987 2983 2980 2977 2977 2975 2975
3115 3111 3107 3102 3097 3093 3090 3086 3081 3077 3073 3069 3064 3058 3055 3051 3046 3042 3039 3036 3033 3029 3025 3020 3017 3014 3012 3010 3008 3005 3002 2999 2996 2995 2993 2989 2985 2983 2980 2978 2976 2975 2975 2973 2971
3115 3112 3108 3103 3098 3094 3089 3086 3081 3077 3074 3069 3065 3061 3056 3052 3048 3042 3038 3035 3032 3029 3025 3021 3018 3013 3009 3007 3006 3005 3003 3001 2998 2996 2994 2991 2987 2984 2982 2980 2977 2975 2970 2968 2967
3115 3111 3108 3103 3097 3093 3090 3085 3080 3076 3073 3068 3063 3059 3056 3052 3047 3041 3037 3034 3031 3028 3023 3020 3016 3013 3009 3008 3005 3004 3002 3000 2997 2995 2994 2991 2989 2985 2982 2979 2976 2972 2969 2967 2966
Wind_Speed
25 24 24 25 26 25 25 25 28 26 17 26 30 34 35 32 34 30 30 30 31 24 26 32 29 25 29 36 39 46 37 55 60 40 37 27 31 31 37 39 34 27 28 28 32
27 27 27 28 29 28 27 30 30 24 26 40 50 48 47 43 30 22 17 19 20 25 25 24 27 23 23 29 37 47 49 66 42 37 36 33 33 23 39 45 43 39 29 33 25
30 30 29 29 28 29 29 31 29 21 37 49 50 49 47 43 20 19 25 26 28 28 26 23 20 18 25 34 33 44 57 43 35 32 39 36 39 36 30 46 49 44 35 34 36
32 32 31 30 29 30 30 33 29 28 41 48 48 48 44 44 10 28 24 18 21 23 27 22 19 14 14 23 39 29 56 49 42 47 37 44 41 43 26 38 41 43 33 39 40
33 33 32 31 31 30 34 34 28 25 44 47 47 47 44 28 24 28 32 34 26 25 25 23 20 20 18 14 22 37 32 44 43 40 37 48 47 43 38 26 32 32 36 41 44
33 35 34 33 33 31 34 33 24 26 43 44 47 44 41 29 26 28 32 30 26 24 23 26 24 16 22 20 18 24 31 26 46 44 47 41 49 48 45 20 28 35 40 35 40
34 35 35 36 35 31 36 32 20 27 46 45 50 39 38 28 29 31 31 30 29 24 21 18 21 16 18 15 13 16 31 32 27 42 42 45 43 63 50 29 26 39 43 31 37
32 34 36 37 38 32 35 32 17 21 48 45 53 38 37 28 30 28 31 25 23 21 21 11 14 13 16 18 20 21 21 24 19 18 42 40 35 47 54 44 32 30 39 37 33
31 34 36 36 37 31 33 31 14 20 50 44 49 33 37 25 27 31 32 27 21 23 19 4 7 9 7 14 18 13 21 18 26 18 30 35 35 26 41 50 40 31 34 43 36
30 32 35 36 37 30 30 30 14 17 38 40 47 33 41 36 34 32 28 21 21 19 14 10 2 3 8 14 13 15 21 13 9 14 26 31 35 40 28 36 46 35 36 38 41
29 31 34 35 37 30 30 28 14 17 31 44 43 39 32 25 28 33 26 25 18 13 10 7 6 17 7 6 10 20 13 13 14 9 9 34 33 41 33 24 40 44 31 34 38
28 30 33 35 38 32 28 30 14 15 20 34 40 39 37 27 28 36 27 27 19 17 13 11 17 15 11 13 10 10 10 15 17 12 9 10 31 29 32 36 34 41 33 27 28
27 30 32 34 35 32 23 32 16 9 13 29 40 42 45 31 31 37 44 26 21 17 15 19 24 11 12 13 13 11 11 15 13 17 11 7 21 22 29 29 31 38 38 32 25
26 30 31 35 34 33 20 32 18 10 8 29 38 36 39 36 27 34 42 23 16 22 13 11 27 22 8 5 2 7 7 13 13 10 5 4 8 29 24 32 31 30 32 30 30
26 27 30 33 34 33 24 30 20 8 5 24 33 32 32 34 29 34 39 21 25 17 23 17 34 24 18 7 3 6 8 11 7 9 13 12 2 15 17 23 31 29 36 32 34
25 24 29 30 33 33 29 14 24 9 3 19 26 30 32 30 32 30 42 46 27 15 21 14 23 18 35 9 5 8 11 6 5 5 4 10 1 16 5 10 22 36 37 31 34
25 23 28 27 32 32 26 15 5 14 12 25 31 28 25 35 37 32 40 45 43 23 25 20 14 29 34 22 5 5 3 2 3 1 4 9 8 7 3 8 12 25 34 41 35
24 21 28 27 29 30 28 20 15 10 20 27 20 29 17 35 30 30 31 45 41 32 11 17 12 34 27 24 20 14 7 4 2 4 1 13 7 6 2 3 11 20 28 36 36
23 19 26 24 27 28 32 29 14 16 21 27 21 22 23 29 19 28 24 36 38 32 18 17 13 23 24 22 18 9 10 5 4 3 6 8 8 6 2 0 4 17 24 36 37
23 20 24 24 22 24 29 27 20 23 25 25 20 22 20 29 28 24 29 26 35 28 19 15 9 17 25 28 23 16 16 7 6 5 3 6 7 7 6 3 7 3 19 26 40
23 23 21 23 21 25 31 23 24 26 26 24 25 22 22 25 21 20 25 17 33 31 21 19 11 15 20 31 29 35 20 8 4 5 3 2 2 15 17 10 8 3 5 17 33
24 25 17 28 28 29 26 25 24 24 26 25 27 26 26 26 15 17 20 22 30 31 24 20 14 12 12 17 25 34 28 16 6 6 5 3 1 15 19 14 10 10 5 9 21
25 25 20 29 24 26 23 23 22 23 24 24 27 27 29 23 13 18 20 20 22 28 24 19 13 11 9 9 22 28 29 16 4 3 12 3 2 16 16 12 12 10 10 8 12
33 27 28 31 26 24 24 24 24 23 18 24 22 26 29 22 25 18 22 20 19 23 22 12 9 5 0 7 15 19 26 23 12 6 11 2 12 11 14 12 10 9 9 9 13
35 27 27 30 25 26 24 24 23 24 23 24 23 28 27 24 23 23 21 16 14 18 22 19 10 9 7 7 9 9 18 20 18 12 7 15 15 19 21 18 15 13 11 9 10
28 32 30 29 23 26 25 27 25 24 22 23 23 24 24 26 27 26 21 17 12 18 20 22 17 12 6 12 8 7 10 15 12 12 11 11 14 17 17 13 14 15 13 11 10
27 27 30 34 26 26 28 25 27 25 20 23 24 25 24 25 27 21 15 16 15 18 18 18 22 13 4 10 8 6 7 11 12 9 12 14 15 16 13 12 13 14 15 13 11
Wind_Direction
17 13 12 14 12 9 9 6 1 357 11 360 355 351 352 349 337 317 310 293 288 283 266 263 252 246 233 223 217 214 224 232 231 226 229 206 225 230 224 217 210 214 218 222 223
18 15 15 15 11 6 7 7 2 8 6 2 1 355 350 348 339 300 326 305 292 288 283 272 273 250 236 229 222 217 225 233 234 232 231 225 216 238 228 226 207 200 221 225 219
20 18 16 14 9 4 7 6 7 15 9 4 359 353 350 344 353 267 321 303 289 295 288 278 273 275 240 226 221 223 228 234 230 225 229 228 222 223 241 232 223 210 218 225 219
19 18 16 13 9 6 7 5 10 20 8 2 357 355 348 347 330 327 333 326 311 303 295 282 272 265 262 240 235 249 229 241 236 237 234 223 221 220 223 240 231 215 215 229 216
19 17 15 12 10 8 7 6 15 19 6 1 360 354 359 346 338 340 334 327 320 301 292 289 283 268 260 258 262 263 237 238 234 235 228 230 216 223 216 227 220 219 207 231 223
19 16 12 12 10 9 7 7 19 19 7 3 5 2 2 350 346 341 332 332 330 316 299 273 273 267 256 246 262 265 255 261 239 233 241 225 219 224 208 202 223 197 204 222 231
18 16 12 12 9 9 8 8 21 19 6 8 9 10 360 360 352 346 346 339 332 328 308 294 254 256 248 260 264 264 268 272 259 235 231 230 231 220 209 198 222 208 204 213 235
17 14 13 13 7 7 7 6 18 19 8 14 14 4 9 4 350 359 350 346 343 343 343 309 237 265 254 234 252 271 279 287 256 237 233 233 235 221 216 209 202 204 204 202 208
17 15 14 13 9 4 5 2 12 12 14 12 11 15 2 4 357 1 351 351 3 11 354 342 216 255 254 238 246 252 263 271 257 255 234 239 236 231 227 218 212 206 215 209 208
16 16 15 13 10 3 4 4 6 13 16 18 7 19 7 6 6 355 2 1 24 2 335 8 54 281 241 232 223 238 240 252 259 228 227 237 236 231 229 229 209 209 209 217 221
16 15 15 14 11 4 5 7 20 17 12 22 13 14 1 5 8 10 358 9 34 13 33 354 4 13 334 309 257 265 285 300 248 260 296 228 233 226 224 213 214 217 209 215 219
14 14 16 15 12 6 12 8 15 16 7 11 12 13 15 3 8 13 13 8 22 24 10 17 353 337 317 280 289 273 289 284 277 276 275 233 215 225 223 219 213 203 203 204 222
9 13 14 17 14 9 13 12 19 12 15 6 360 10 16 8 13 12 9 5 21 28 30 17 353 346 313 300 273 259 265 266 286 304 319 214 209 213 218 216 224 207 202 192 208
8 10 12 16 14 15 14 17 18 3 22 0 2 7 12 11 17 9 8 7 27 27 20 358 2 14 9 84 215 257 257 262 281 286 278 36 192 211 201 200 218 217 219 207 208
6 11 11 16 14 14 20 29 19 25 45 350 359 8 24 8 7 14 7 28 31 40 13 357 12 16 18 340 288 241 243 251 243 242 298 314 60 179 195 194 200 213 204 199 206
6 10 12 14 17 18 22 34 34 50 7 352 359 5 16 15 21 7 11 28 24 45 29 359 7 22 1 356 304 296 288 252 235 178 264 252 30 31 145 211 193 202 215 218 198
3 9 12 14 20 19 24 35 35 47 352 348 3 13 12 8 20 12 14 24 24 13 14 11 355 15 5 23 43 348 37 143 149 148 222 182 106 45 21 265 240 205 198 204 208
4 8 10 15 20 19 30 44 61 352 7 9 0 21 3 4 19 17 14 21 19 24 14 360 352 9 2 17 342 38 23 24 182 169 154 147 111 85 104 304 238 225 209 198 205
5 8 11 17 19 16 28 46 43 21 6 6 28 6 16 12 15 18 15 13 14 17 12 355 359 14 22 19 31 359 3 355 313 334 110 114 113 149 92 191 217 225 221 206 206
4 10 17 19 17 16 30 48 38 27 22 20 12 7 355 4 13 22 12 3 9 13 17 354 320 16 11 40 48 37 27 32 3 16 119 88 66 348 4 309 14 182 237 227 211
4 11 16 18 12 19 36 38 30 26 21 19 12 9 7 357 11 16 8 14 8 14 14 4 3 8 24 27 17 29 28 28 31 32 352 47 42 8 354 332 332 332 249 241 230
10 16 15 12 17 19 22 23 20 20 19 18 13 10 3 7 8 8 7 9 9 8 6 3 356 333 7 23 30 32 28 43 22 356 12 274 188 351 346 337 319 308 276 267 247
11 20 18 14 15 12 13 14 14 11 14 13 12 8 4 2 1 2 1 4 8 9 6 13 8 341 345 9 21 22 24 25 20 36 24 19 340 337 335 325 317 301 293 289 257
13 16 14 13 14 9 5 4 0 4 2 5 8 7 5 359 354 354 354 356 7 12 7 6 15 2 250 306 335 360 11 23 30 53 332 335 327 336 349 343 327 310 294 289 278
13 16 12 8 9 6 4 1 355 353 354 356 354 2 1 356 354 344 351 350 356 7 8 11 355 337 319 336 309 346 352 2 21 16 4 329 334 344 346 349 346 334 325 295 285
9 12 12 8 3 5 3 359 354 346 343 346 347 349 352 352 348 338 341 348 350 358 359 4 1 345 348 351 318 306 303 340 347 6 5 342 341 339 331 338 349 338 335 307 296
1 1 2 3 1 360 360 355 350 346 343 339 337 338 343 347 347 339 330 342 329 336 351 350 357 346 301 341 319 279 331 351 345 328 352 351 340 340 343 339 348 352 346 334 313